Location: Bowden
(51.9167°N, 114.0333°W)
Time: 10:47:24
(UTC+00:00)

Envisat - Pass Details

Date: 07 December 2021
Orbit: 764 x 766 km, 98.2° (Epoch: 28 January)

Event Time Altitude Azimuth Distance (km) Brightness Sun altitude
Rises 23:56:20 0° 177° (S) 3,221 6.6 -4.7°
Reaches altitude 10° 23:58:41 10° 182° (S) 2,300 6.0 -5.0°
Maximum altitude 00:03:39 55° 260° (W) 923 3.9 -5.7°
Drops below altitude 10° 00:08:40 10° 338° (NNW) 2,317 5.4 -6.3°
Sets 00:11:02 0° 343° (NNW) 3,248 6.1 -6.7°
